[[{"header":{"parameterUnit":"m.s-1","parameterCategory":1,"la1":30.2992,"la2":30.254,"lo1":-89.0895,"lo2":-89.0443,"dy":0.0025,"dx":0.0025,"nx":19,"ny":19,"refTime":"2026-04-30T21:00:00:Z","depth":0,"parameterNumber":2,"parameterNumberName":"U-component_of_WINDS"},"data":[0,0,0,-2.8944,-2.8944,-2.892,-2.892,-2.8906,-2.8906,0,0,0,0,0,0,0,0,0,0,0,-2.8962,-2.8962,-2.8944,-2.8944,-2.892,-2.892,-2.8906,-2.8906,0,0,0,0,0,0,0,0,0,0,0,-2.8961,-2.8962,-2.8962,-2.8944,-2.892,-2.892,-2.8906,-2.8918,0,0,0,0,0,0,0,0,0,0,-2.8938,-2.8965,-2.8962,-2.8962,-2.8943,-2.892,-2.892,-2.8918,-2.8917,-2.8924,0,-2.8934,0,-2.892,-2.8906,-2.8906,0,0,0,-2.8935,-2.8966,-2.895,-2.8962,-2.8943,-2.8921,-2.8928,-2.8917,-2.8916,-2.8923,-2.8934,-2.8933,-2.892,-2.8906,-2.8906,-2.8975,-2.8975,0,0,-2.8937,-2.8963,-2.8951,-2.895,-2.8956,-2.8929,-2.8928,-2.8916,-2.893,-2.8933,-2.8932,-2.892,-2.8906,-2.8906,-2.8974,-2.8975,0,0,0,-2.8946,-2.8965,-2.8948,-2.8951,-2.8945,-2.8929,-2.8927,-2.893,-2.8923,-2.8932,-2.8919,-2.8906,-2.8907,-2.8973,-2.8974,-2.9035,0,0,0,-2.8946,-2.897,-2.8949,-2.8965,-2.8946,-2.8938,-2.8942,-2.8923,-2.8921,-2.8919,-2.8906,-2.8907,-2.8972,-2.8974,-2.9032,-2.906,0,0,0,-2.8959,-2.8971,-2.8972,-2.8967,-2.8958,-2.8937,-2.8929,-2.8922,-2.8914,-2.8906,-2.8907,-2.8972,-2.8973,-2.9029,-2.9055,-2.9085,0,0,0,-2.8981,-2.9027,-2.8973,-2.9019,-2.8958,-2.8976,-2.8929,-2.894,-2.8941,-2.8906,-2.8972,-2.8974,-2.9028,-2.9052,-2.9082,-2.9115,-2.9132,0,0,-2.9054,-2.9037,-2.9061,-2.9013,-2.9046,-2.8977,-2.9019,-2.8994,-2.8969,-2.8974,-2.8975,-2.9033,-2.9054,-2.9084,-2.9215,-2.9228,0,0,0,-2.9093,-2.9112,-2.9115,-2.9116,-2.9099,-2.9085,-2.905,-2.9041,-2.9043,-2.8977,-2.9051,-2.9063,-2.9079,-2.9094,-2.9105,-2.9117,-2.8982,-2.8982,-2.8982,-2.9235,-2.92,-2.9238,-2.9199,-2.9201,-2.9164,-2.9162,-2.9143,-2.9107,-2.9125,-2.9126,-2.921,-2.9228,-2.9236,-2.9249,-2.9141,-2.9141,-2.9141,-2.9141,-2.9338,-2.9358,-2.9307,-2.9327,-2.9288,-2.9303,-2.9268,-2.9242,-2.9249,-2.9206,-2.9219,-2.9175,-2.9252,-2.9261,-2.9146,-2.9145,-2.9144,-2.9144,-2.9144,-2.9427,-2.943,-2.9417,-2.9415,-2.9417,-2.9375,-2.9384,-2.9349,-2.9315,-2.9328,-2.9324,-2.9323,-2.9317,-2.9328,-2.9329,-2.9329,-2.9329,-2.9329,-2.933,-2.9525,-2.9508,-2.9521,-2.9504,-2.9499,-2.9489,-2.945,-2.9444,-2.9428,-2.9401,-2.9401,-2.9362,-2.9266,-2.9243,-2.9334,-2.9333,-2.9333,-2.9332,-2.9332,-2.9642,-2.961,-2.963,-2.9625,-2.9601,-2.9604,-2.9557,-2.9548,-2.9537,-2.9543,-2.95,-2.9435,-2.9415,-2.9406,-2.9386,-2.9509,-2.9509,-2.9509,-2.9509,-2.9718,-2.9704,-2.9715,-2.9709,-2.9699,-2.9659,-2.968,-2.9649,-2.9613,-2.9603,-2.958,-2.9551,-2.9543,-2.9527,-2.9515,-2.9496,-2.9644,-2.9644,-2.9644,-2.9788,-2.9771,-2.9797,-2.9761,-2.9738,-2.972,-2.9738,-2.9732,-2.9683,-2.9649,-2.9595,-2.9589,-2.9541,-2.9528,-2.9494,-2.9477,-2.9441,0,0]},{"header":{"parameterUnit":"m.s-1","parameterCategory":1,"la1":30.2992,"la2":30.254,"lo1":-89.0895,"lo2":-89.0443,"dy":0.0025,"dx":0.0025,"nx":19,"ny":19,"refTime":"2026-04-30T21:00:00:Z","depth":0,"parameterNumber":3,"parameterNumberName":"V-component_of_WINDS"},"data":[0,0,0,-2.7363,-2.7364,-2.7419,-2.7419,-2.7469,-2.7469,0,0,0,0,0,0,0,0,0,0,0,-2.7337,-2.7337,-2.7363,-2.7364,-2.7419,-2.7419,-2.7469,-2.7469,0,0,0,0,0,0,0,0,0,0,0,-2.7337,-2.7337,-2.7337,-2.7364,-2.7419,-2.7419,-2.7469,-2.7434,0,0,0,0,0,0,0,0,0,0,-2.7384,-2.7352,-2.7337,-2.7337,-2.7365,-2.7419,-2.7419,-2.7433,-2.7436,-2.7436,0,-2.7436,0,-2.7453,-2.7472,-2.7472,0,0,0,-2.7371,-2.7349,-2.7372,-2.7337,-2.7365,-2.7418,-2.7396,-2.7435,-2.7439,-2.7441,-2.7437,-2.7439,-2.7454,-2.7472,-2.7472,-2.7452,-2.7451,0,0,-2.7368,-2.7342,-2.737,-2.7374,-2.7367,-2.7394,-2.7398,-2.7438,-2.7431,-2.7437,-2.7441,-2.7455,-2.7472,-2.7472,-2.7452,-2.7452,0,0,0,-2.7355,-2.7339,-2.7362,-2.7372,-2.7383,-2.7396,-2.74,-2.7429,-2.7439,-2.7441,-2.7456,-2.7472,-2.7473,-2.7453,-2.7452,-2.7404,0,0,0,-2.7353,-2.7332,-2.7361,-2.7345,-2.7382,-2.7407,-2.739,-2.7436,-2.7441,-2.7455,-2.7472,-2.7473,-2.7453,-2.7452,-2.7406,-2.7384,0,0,0,-2.7337,-2.733,-2.7335,-2.7343,-2.7366,-2.7407,-2.742,-2.7438,-2.745,-2.7472,-2.7473,-2.7454,-2.7453,-2.7408,-2.7388,-2.7368,0,0,0,-2.7312,-2.7293,-2.7334,-2.7318,-2.7366,-2.7379,-2.742,-2.7431,-2.7444,-2.7472,-2.7453,-2.7452,-2.7409,-2.739,-2.737,-2.7344,-2.7331,0,0,-2.7273,-2.7288,-2.728,-2.7318,-2.7316,-2.7372,-2.7363,-2.7401,-2.7427,-2.7441,-2.7441,-2.7405,-2.7388,-2.7368,-2.7278,-2.7268,0,0,0,-2.7259,-2.7252,-2.7258,-2.7269,-2.7298,-2.7318,-2.736,-2.7373,-2.7386,-2.743,-2.7396,-2.7386,-2.7376,-2.7364,-2.7355,-2.7345,-2.7447,-2.7447,-2.7447,-2.7165,-2.7199,-2.7187,-2.7226,-2.7237,-2.7278,-2.7288,-2.7313,-2.7346,-2.7337,-2.734,-2.7281,-2.7267,-2.7261,-2.725,-2.7332,-2.7332,-2.7332,-2.7332,-2.7108,-2.7102,-2.7144,-2.7147,-2.7182,-2.7184,-2.7222,-2.7245,-2.725,-2.7283,-2.7275,-2.7304,-2.7249,-2.7241,-2.7329,-2.7329,-2.733,-2.733,-2.733,-2.7047,-2.705,-2.7066,-2.7083,-2.7093,-2.7133,-2.7135,-2.7168,-2.7199,-2.7192,-2.7195,-2.7196,-2.7197,-2.7192,-2.7192,-2.7192,-2.7191,-2.7191,-2.7191,-2.6976,-2.6996,-2.6994,-2.702,-2.7029,-2.7046,-2.7085,-2.7095,-2.7113,-2.7136,-2.7137,-2.7166,-2.7239,-2.7254,-2.7188,-2.7189,-2.7189,-2.7189,-2.7189,-2.6899,-2.6921,-2.6918,-2.6927,-2.6957,-2.6961,-2.7003,-2.7018,-2.7031,-2.703,-2.7062,-2.7112,-2.7128,-2.7135,-2.7147,-2.7058,-2.7058,-2.7058,-2.7058,-2.6844,-2.6856,-2.6858,-2.6869,-2.6884,-2.6921,-2.6911,-2.694,-2.6974,-2.6983,-2.7002,-2.7022,-2.7028,-2.704,-2.705,-2.7061,-2.6952,-2.6952,-2.6952,-2.6796,-2.6811,-2.6797,-2.6831,-2.6856,-2.6876,-2.6866,-2.6875,-2.6919,-2.6948,-2.6989,-2.6994,-2.7027,-2.7037,-2.7064,-2.7077,-2.71,0,0]}]]